Stanton, MN

8:50 PM CDT on May 27, 2017 (GMT -0500)
Stanton

Weather History for KSYN - February, 2013

Change the Weather History Date:

Friday, February 8, 2013

  Actual Average (KLVN) Record (KLVN)
Temperature  
Mean Temperature 24 °F -  
Max Temperature 27 °F 23 °F 51 °F (1991)
Min Temperature 20 °F 4 °F -25 °F (1971)
Degree Days  
Heating Degree Days 42    
Moisture  
Dew Point 17 °F    
Average Humidity 74    
Maximum Humidity 81    
Minimum Humidity 55    
Precipitation  
Precipitation 0.00 in - - ()
Sea Level Pressure  
Sea Level Pressure 30.28 in    
Wind  
Wind Speed 7 mph (ESE)    
Max Wind Speed 15 mph    
Max Gust Speed 20 mph    
Visibility 10 miles    
Events      
Averages and records for this station are not official NWS values.
T = Trace of Precipitation, MM = Missing Value Source: NWS Daily Summary

Daily Weather History Graph

Daily Weather History Graph

Search for Another Location

Airport or City:

Trip Planner

Search our weather history database for the weather conditions in past years. The results will help you decide how hot, cold, wet, or windy it might be!

Date:

Astronomy

Feb. 08, 2013 Rise Set
Actual Time 7:21 AM CST 5:31 PM CST
Civil Twilight 6:51 AM CST 6:01 PM CST
Nautical Twilight 6:16 AM CST 6:36 PM CST
Astronomical Twilight 5:43 AM CST 7:10 PM CST
Moon 5:52 AM CST (2/8) 4:04 PM CST (2/8)
Length of Visible Light 11h 10m
Length of Day
10h 10m
Waning Crescent, 3% of the Moon is Illuminated
Feb 8
Waning Crescent
Feb 10
New
Feb 17
First Quarter
Feb 25
Full
Mar 4
Last Quarter

Hourly Weather History & Observations

Time (CST) Temp. Windchill Dew Point Humidity Pressure Visibility Wind Dir Wind Speed Gust Speed Precip Events Conditions
12:12 AM 26.6 °F 16.2 °F 20.1 °F 77% 30.21 in 10.0 mi NNE 11.5 mph - N/A   Overcast
12:33 AM 26.4 °F 17.3 °F 20.1 °F 77% 30.21 in 10.0 mi NNE 9.2 mph - N/A   Overcast
12:52 AM 26.2 °F 17.8 °F 20.3 °F 78% 30.23 in 10.0 mi NNE 8.1 mph - N/A   Overcast
1:12 AM 26.2 °F 18.6 °F 20.3 °F 78% 30.23 in 10.0 mi NNE 6.9 mph - N/A   Overcast
1:33 AM 26.1 °F 17.6 °F 20.3 °F 79% 30.24 in 10.0 mi NNE 8.1 mph - N/A   Overcast
2:12 AM 25.5 °F 16.9 °F 18.9 °F 76% 30.25 in 10.0 mi NNE 8.1 mph - N/A   Overcast
2:33 AM 25.5 °F 18.7 °F 18.9 °F 76% 30.26 in 10.0 mi North 5.8 mph - N/A   Overcast
2:52 AM 25.3 °F 16.7 °F 18.3 °F 75% 30.26 in 10.0 mi NNE 8.1 mph - N/A   Overcast
3:12 AM 25.2 °F 16.5 °F 18.1 °F 75% 30.26 in 10.0 mi North 8.1 mph - N/A   Overcast
3:33 AM 24.8 °F 16.9 °F 18.1 °F 76% 30.25 in 10.0 mi NNE 6.9 mph - N/A   Overcast
3:52 AM 24.6 °F 17.7 °F 18.3 °F 77% 30.25 in 10.0 mi NNE 5.8 mph - N/A   Overcast
4:13 AM 24.4 °F 20.1 °F 18.5 °F 78% 30.26 in 10.0 mi North 3.5 mph - N/A   Overcast
4:32 AM 24.6 °F 18.8 °F 18.1 °F 76% 30.26 in 10.0 mi NNE 4.6 mph - N/A   Overcast
4:53 AM 24.3 °F 19.9 °F 18.5 °F 79% 30.27 in 10.0 mi NNE 3.5 mph - N/A   Overcast
5:13 AM 24.3 °F 17.3 °F 18.5 °F 79% 30.28 in 10.0 mi North 5.8 mph - N/A   Overcast
5:32 AM 24.3 °F 18.4 °F 18.3 °F 78% 30.29 in 10.0 mi North 4.6 mph - N/A   Overcast
5:53 AM 24.1 °F 17.0 °F 18.3 °F 79% 30.30 in 10.0 mi North 5.8 mph - N/A   Overcast
6:12 AM 23.9 °F 18.0 °F 18.3 °F 79% 30.30 in 10.0 mi NNE 4.6 mph - N/A   Overcast
6:32 AM 23.9 °F 18.0 °F 18.5 °F 80% 30.30 in 10.0 mi North 4.6 mph - N/A   Overcast
6:53 AM 23.9 °F 18.0 °F 18.3 °F 79% 30.31 in 10.0 mi NNE 4.6 mph - N/A   Overcast
7:12 AM 23.5 °F 16.4 °F 18.5 °F 81% 30.32 in 10.0 mi NNE 5.8 mph - N/A   Overcast
7:32 AM 23.5 °F 16.4 °F 18.3 °F 80% 30.32 in 10.0 mi NNE 5.8 mph - N/A   Overcast
7:53 AM 23.5 °F 15.4 °F 18.3 °F 80% 30.33 in 10.0 mi NE 6.9 mph - N/A   Overcast
8:12 AM 23.9 °F 19.5 °F 18.3 °F 79% 30.33 in 10.0 mi ENE 3.5 mph - N/A   Overcast
8:33 AM 24.1 °F 18.2 °F 18.5 °F 79% 30.33 in 10.0 mi East 4.6 mph - N/A   Overcast
8:53 AM 24.4 °F 15.6 °F 18.5 °F 78% 30.33 in 10.0 mi East 8.1 mph - N/A   Overcast
9:12 AM 24.4 °F 15.6 °F 17.2 °F 74% 30.34 in 10.0 mi ESE 8.1 mph - N/A   Overcast
9:33 AM 23.9 °F 14.2 °F 16.5 °F 73% 30.35 in 10.0 mi East 9.2 mph - N/A   Overcast
9:53 AM 23.9 °F 15.0 °F 16.5 °F 73% 30.34 in 10.0 mi East 8.1 mph - N/A   Overcast
10:12 AM 24.3 °F 14.6 °F 16.0 °F 71% 30.34 in 7.0 mi East 9.2 mph - N/A   Overcast
10:58 AM 24.3 °F 17.3 °F 14.9 °F 68% 30.36 in 10.0 mi East 5.8 mph - N/A   Overcast
11:12 AM 24.6 °F 15.8 °F 14.9 °F 67% 30.35 in 10.0 mi East 8.1 mph - N/A   Overcast
11:33 AM 23.9 °F 16.8 °F 14.5 °F 67% 30.35 in 10.0 mi East 5.8 mph - N/A   Overcast
11:53 AM 25.5 °F 18.7 °F 11.8 °F 56% 30.35 in 10.0 mi ESE 5.8 mph - N/A   Scattered Clouds
12:12 PM 25.3 °F 18.5 °F 11.3 °F 55% 30.34 in 10.0 mi SSE 5.8 mph - N/A   Clear
12:33 PM 25.2 °F 16.5 °F 11.8 °F 57% 30.33 in 10.0 mi South 8.1 mph - N/A   Clear
12:52 PM 25.3 °F 18.5 °F 12.0 °F 57% 30.33 in 10.0 mi SSE 5.8 mph - N/A   Clear
1:12 PM 25.5 °F 18.7 °F 12.4 °F 58% 30.34 in 10.0 mi South 5.8 mph - N/A   Clear
1:32 PM 25.7 °F 20.1 °F 12.4 °F 57% 30.33 in 10.0 mi SSE 4.6 mph - N/A   Clear
1:52 PM 25.9 °F 19.2 °F 12.0 °F 56% 30.32 in 10.0 mi SSE 5.8 mph - N/A   Clear
2:13 PM 26.1 °F 19.4 °F 12.6 °F 57% 30.30 in 10.0 mi SSE 5.8 mph - N/A   Clear
2:33 PM 26.2 °F 18.6 °F 12.2 °F 55% 30.30 in 10.0 mi SSE 6.9 mph - N/A   Clear
2:52 PM 26.1 °F 19.4 °F 12.4 °F 56% 30.30 in 10.0 mi SE 5.8 mph - N/A   Clear
3:13 PM 24.8 °F 16.9 °F 13.8 °F 63% 30.30 in 10.0 mi SSW 6.9 mph - N/A   Clear
3:33 PM 24.6 °F 18.8 °F 15.4 °F 68% 30.30 in 10.0 mi SSW 4.6 mph - N/A   Clear
3:52 PM 23.9 °F 16.8 °F 15.8 °F 71% 30.30 in 10.0 mi South 5.8 mph - N/A   Clear
4:13 PM 21.6 °F 15.3 °F 14.9 °F 76% 30.30 in 10.0 mi SSW 4.6 mph - N/A   Clear
4:33 PM 20.8 °F 16.0 °F 14.9 °F 78% 30.29 in 10.0 mi SSW 3.5 mph - N/A   Clear
4:52 PM 20.5 °F - 14.5 °F 78% 30.29 in 10.0 mi Calm Calm - N/A   Mostly Cloudy
5:13 PM 21.0 °F 16.2 °F 15.4 °F 79% 30.28 in 10.0 mi SSE 3.5 mph - N/A   Overcast
5:33 PM 23.2 °F 17.2 °F 16.5 °F 76% 30.27 in 10.0 mi SE 4.6 mph - N/A   Overcast
5:52 PM 23.0 °F 18.4 °F 16.5 °F 76% 30.27 in 10.0 mi SE 3.5 mph - N/A   Overcast
6:13 PM 23.5 °F 15.4 °F 16.9 °F 76% 30.26 in 10.0 mi SE 6.9 mph - N/A   Overcast
6:32 PM 23.9 °F 15.8 °F 18.1 °F 79% 30.26 in 10.0 mi SE 6.9 mph - N/A   Overcast
6:53 PM 24.4 °F 17.5 °F 18.7 °F 79% 30.26 in 10.0 mi SSE 5.8 mph - N/A   Overcast
7:13 PM 24.6 °F 15.8 °F 19.0 °F 79% 30.26 in 10.0 mi SSE 8.1 mph - N/A   Overcast
7:32 PM 24.8 °F 14.6 °F 19.4 °F 80% 30.25 in 10.0 mi SSE 10.4 mph - N/A   Overcast
7:53 PM 25.3 °F 16.0 °F 19.8 °F 79% 30.25 in 10.0 mi SSE 9.2 mph - N/A   Overcast
8:13 PM 25.5 °F 16.9 °F 19.9 °F 79% 30.25 in 10.0 mi SSE 8.1 mph - N/A   Overcast
8:32 PM 25.7 °F 15.7 °F 20.1 °F 79% 30.24 in 10.0 mi SSE 10.4 mph 17.3 mph N/A   Overcast
8:53 PM 25.9 °F 17.4 °F 20.3 °F 79% 30.23 in 10.0 mi SSE 8.1 mph - N/A   Overcast
9:12 PM 26.2 °F 16.4 °F 20.3 °F 78% 30.23 in 10.0 mi SSE 10.4 mph 18.4 mph N/A   Overcast
9:32 PM 26.4 °F 17.3 °F 20.7 °F 79% 30.23 in 10.0 mi SSE 9.2 mph - N/A   Overcast
9:53 PM 26.6 °F 15.7 °F 20.7 °F 78% 30.22 in 10.0 mi SSE 12.7 mph 17.3 mph N/A   Overcast
10:12 PM 26.6 °F 15.2 °F 20.8 °F 79% 30.22 in 10.0 mi South 13.8 mph 19.6 mph N/A   Overcast
10:33 PM 26.6 °F 15.2 °F 21.0 °F 79% 30.22 in 10.0 mi SSE 13.8 mph 18.4 mph N/A   Overcast
10:53 PM 26.8 °F 14.9 °F 21.0 °F 79% 30.21 in 10.0 mi South 15.0 mph 19.6 mph N/A   Overcast
11:12 PM 27.0 °F 16.7 °F 21.2 °F 79% 30.22 in 10.0 mi South 11.5 mph - N/A   Overcast
11:33 PM 27.1 °F 18.2 °F 21.6 °F 80% 30.22 in 10.0 mi South 9.2 mph - N/A   Overcast
11:53 PM 27.0 °F 16.7 °F 21.2 °F 79% 30.22 in 10.0 mi South 11.5 mph 17.3 mph N/A   Overcast